Location: Haliburton Scout Reserve
(45.0900°N, 78.3200°W)
Time: 19:07:29
(UTC-04:00)

Courier 1B Rocket - Pass Details

Date: 12 February 2023
Orbit: 920 x 1202 km, 28.2° (Epoch: 22 March)

Event Time Altitude Azimuth Distance (km) Brightness Sun altitude
Rises 12:25:28 0° 213° (SSW) 3,919 8.9 31.3°
Reaches altitude 10° 12:30:18 10° 186° (S) 2,891 9.0 31.3°
Maximum altitude 12:32:56 12° 163° (SSE) 2,681 8.7 31.3°
Drops below altitude 10° 12:35:31 10° 141° (SE) 2,813 8.2 31.3°
Sets 12:40:03 0° 113° (ESE) 3,697 8.3 31.2°
